sat.trackr.live / text

‹ back to catalog

STARLINK-37737

NORAD 69227 · 2026-115S

PAYLOAD ACTIVE UNKNOWN

§ Identity

Operator
Country
US
Launch date
2026-05-26
Launch site
AFWTR
Launch vehicle
Mass (kg)
RCS (m²)

Purposes: comms

External: N2YO · Heavens-Above · Gunter

§ Orbital elements

Epoch: 2026-09-20T02:43:42.639744Z

Period
93.91 min
Inclination
97.2838°
Eccentricity
0.0001241
Mean motion
15.33456488 rev/d
Perigee alt
464.7 km
Apogee alt
466.4 km
Semi-major
6,843.6 km
B*
5.8565e-4
RAAN
279.2511°
Arg perigee
58.5232°
Mean anomaly
301.6132°
Rev number
1,923

§ Raw data

STARLINK-377371 69227U 26115S   26263.11368796  .00018886  00000+0  58565-3 0  99932 69227  97.2838 279.2511 0001241  58.5232 301.6132 15.33456488 19233

JSON: /api/v1/satellites/69227 · /tle

For live sub-satellite position, see the globe view (requires WebGL).

§ Visibility from observer

Set your observer location to see the next 7 days of passes ≥ 10°. The values pass through the URL so the page stays shareable.

No JS? Fill the form by hand. The geolocation button needs JavaScript.